Location: Unspecified
(44.4377°N, 88.0525°W)
Time: 14:44:30
(UTC-06:00)

Okean 3 - Visible Passes

Search period start: 20 November 2014 00:00
Search period end: 30 November 2014 00:00
Orbit: 582 x 610 km, 82.5° (Epoch: 19 November)

Date Brightness Start Highest point End Pass type
(mag) Time Alt. Az. Time Alt. Az. Time Alt. Az.
20 Nov 4.6 17:24:05 10° SSW 17:28:12 45° WNW 17:32:18 10° N visible
21 Nov 5.5 17:34:31 10° SW 17:38:17 30° WNW 17:42:02 10° NNW visible
22 Nov 6.1 17:45:15 10° WSW 17:48:24 20° WNW 17:51:35 10° NNW visible
23 Nov 6.4 17:56:26 10° W 17:58:35 14° WNW 18:00:44 10° NW visible
26 Nov 5.1 16:46:50 10° SW 16:50:46 36° WNW 16:54:42 10° N visible
27 Nov 5.8 16:57:22 10° SW 17:00:51 24° WNW 17:04:19 10° NNW visible
28 Nov 6.2 17:08:15 10° WSW 17:10:57 16° WNW 17:13:41 10° NNW visible
29 Nov 6.5 17:19:58 10° W 17:21:07 11° WNW 17:22:17 10° NW visible
